{"data":{"norad_id":65796,"epoch":"2026-09-20T12:00:11.341728Z","epoch_age_seconds":106066,"freshness":"FRESH","line1":"1 65796U 25218F   26263.50013127  .00015560  00000+0  48296-3 0  9997","line2":"2 65796  97.2835 120.8770 0003571  87.9447 272.2205 15.33463089 54336","mean_motion":15.33463089,"eccentricity":0.0003571,"inclination_deg":97.2835,"raan_deg":120.877,"arg_perigee_deg":87.9447,"mean_anomaly_deg":272.2205,"bstar":0.00048296,"rev_number":5433,"period_min":93.905096922747,"perigee_km":463.04549589856,"apogee_km":467.93321384121,"semimajor_km":6843.6263548699,"source":"CELESTRAK","updated_at":"2026-09-21T09:00:35.714282Z"}}